Lid_Strength_Index
1 2 2 2 2 2 4 5 6 7 6 5 4 2 0 1 1 1 1 1 1 3 3 3 3 2 2 1 1 1 0 0 1 1 0 0 -0 -0
2 2 3 2 3 3 3 4 4 4 6 4 3 2 0 1 1 1 2 1 1 3 2 3 4 4 3 3 3 3 3 2 2 2 1 1 0 0
3 3 3 3 3 3 4 4 3 4 5 4 2 2 1 1 1 2 0 1 1 2 2 3 4 4 4 4 4 4 3 3 3 3 2 2 2 1
2 3 3 2 4 4 5 4 3 2 3 4 3 3 3 3 3 4 2 0 0 1 3 4 4 4 4 4 5 5 5 4 4 4 4 3 2 2
2 2 2 3 4 5 4 3 2 2 2 3 4 5 4 4 4 3 2 2 2 1 3 4 5 5 4 5 6 6 6 7 7 7 5 4 3 3
2 1 2 2 3 4 3 3 2 3 3 4 4 4 4 4 3 4 5 4 4 2 2 2 3 4 5 5 5 4 5 7 8 8 8 7 7 6
1 1 1 1 2 3 3 3 2 3 3 4 4 5 5 6 6 5 5 4 4 3 3 3 3 2 3 4 3 3 4 7 8 8 8 8 9 8
2 2 1 2 3 4 4 3 2 3 3 3 4 4 6 7 6 6 5 6 8 5 5 4 3 4 3 1 2 4 7 8 9 9 9 9 10 10
2 2 2 1 3 2 4 4 5 5 4 3 5 6 7 6 6 7 6 6 6 4 4 5 4 3 2 1 5 7 8 9 9 9 9 9 10 10
2 2 2 2 2 2 2 3 2 2 3 3 3 6 6 5 3 4 5 6 5 4 4 4 5 4 2 2 7 8 9 10 10 9 9 10 11 11
1 1 1 2 3 6 2 3 3 3 6 7 8 8 7 6 4 3 4 5 5 5 4 4 5 4 4 3 4 8 8 9 10 10 10 10 11 11
2 2 4 3 6 8 2 4 5 6 6 6 6 6 6 6 6 4 4 4 5 5 4 5 5 4 4 3 2 4 6 10 10 10 10 10 10 5
3 2 2 6 8 9 7 5 6 6 5 4 4 4 4 4 4 5 4 3 4 4 3 4 5 5 5 4 3 2 4 6 6 8 11 11 10 6
3 2 2 7 8 9 8 9 10 5 3 3 4 5 5 5 4 4 5 4 2 3 3 3 4 5 4 4 4 2 4 5 5 6 8 11 11 11
2 3 5 8 8 8 8 9 7 3 3 4 5 5 5 4 5 5 4 4 3 3 2 3 3 4 3 3 3 3 5 5 5 6 7 8 6 5
3 3 5 6 6 6 7 7 4 3 3 4 5 5 5 5 5 5 5 4 4 4 3 3 2 2 2 2 2 3 3 7 7 9 11 11 10 10
3 2 3 3 3 6 6 6 6 4 4 4 5 6 6 5 6 6 5 5 3 4 5 4 6 6 5 5 4 2 6 8 9 11 13 14 14 13
3 3 4 3 3 4 5 5 5 4 3 4 5 5 6 6 6 6 6 5 4 5 5 5 5 4 5 6 5 4 6 9 9 11 12 14 15 14
4 3 4 3 3 3 4 4 5 4 3 3 4 5 5 5 7 6 6 5 4 3 3 4 3 4 5 6 6 9 8 9 10 12 11 14 15 14
6 4 4 3 3 3 4 4 4 4 4 4 4 5 5 5 6 6 6 6 5 5 4 3 3 3 4 5 9 10 12 9 12 14 15 15 15 14
8 8 7 4 3 3 3 3 4 4 4 5 5 5 5 5 5 6 6 8 8 4 4 4 3 11 5 6 9 12 13 13 12 14 15 15 15 14
7 8 8 7 4 4 3 3 3 5 5 4 5 5 5 5 5 5 5 4 4 3 4 2 3 5 5 7 11 13 14 13 12 12 12 10 12 14
7 6 7 7 6 4 4 4 3 4 4 4 4 5 5 5 5 4 5 5 4 4 3 3 5 6 7 10 12 13 14 13 13 13 13 12 12 11